Date_and_time,latitude,longitude,wind_speed,RelWindDirFrom,WindDirFrom,air_pressure,air_temperature,relative_humidity,Temp,platform_speed_wrt_ground,air_pressure_at_mean_sea_level,platform_orientation
2018-05-01 23:40,50.6304333333333,-96.98076,4.5,5.3,21,984.78,2.7,86,4.16,0.0,1012.31,90.0
2018-05-01 23:50,50.63044,-96.9807533333333,4.5,4.9,28,984.88,2.7,86,4.17,0.0,1012.40,90.0
2018-05-02 00:00,50.6304416666667,-96.9807583333333,4.0,4.3,39,984.92,2.7,86,4.17,0.0,1012.44,336.5
2018-05-02 00:10,50.6304783333333,-96.9807933333333,3.3,3.8,39,984.94,2.6,86,4.17,0.0,1012.46,336.5
2018-05-02 00:20,50.6304316666667,-96.980755,2.6,3.2,55,985.03,2.7,86,4.18,0.0,1012.54,336.5
2018-05-02 00:30,50.6304283333333,-96.9807566666667,1.5,2.5,55,985.01,2.5,87,4.18,0.0,1012.53,336.5
2018-05-02 00:40,50.630425,-96.9807533333333,0.1,1.0,155,985.12,1.5,98,4.18,0.0,1012.69,336.5
2018-05-02 00:50,50.6304266666667,-96.9807566666667,0.1,0.6,30,985.15,2.0,95,4.18,0.0,1012.70,336.5
2018-05-02 01:00,50.6304266666667,-96.9807583333333,0.2,1.2,7,985.13,2.2,92,4.19,0.0,1012.68,360.0
2018-05-02 01:10,50.6304266666667,-96.980775,1.0,1.5,355,985.20,2.5,89,4.19,0.0,1012.73,360.0
2018-05-02 01:20,50.6304366666667,-96.980765,0.2,0.6,344,985.29,2.7,87,4.19,0.0,1012.81,360.0
2018-05-02 01:30,50.6304383333333,-96.9807633333333,0.9,1.9,359,985.24,3.0,86,4.19,0.0,1012.74,360.0
2018-05-02 01:40,50.63044,-96.980765,2.1,2.4,354,985.10,3.2,84,4.19,0.0,1012.59,360.0
2018-05-02 01:50,50.6304666666667,-96.9807633333333,2.2,2.7,352,985.05,3.3,84,4.19,0.0,1012.53,360.0
2018-05-02 02:00,50.630425,-96.9807783333333,2.5,3.0,349,985.04,3.3,84,4.19,0.0,1012.52,270.0
2018-05-02 02:10,50.6304333333333,-96.9807716666667,2.8,3.2,352,985.02,3.3,84,4.19,0.0,1012.50,270.0
2018-05-02 02:20,50.6304316666667,-96.9807666666667,2.2,2.6,345,985.12,3.3,83,4.19,0.0,1012.61,270.0
2018-05-02 02:30,50.6304416666667,-96.9807583333333,2.2,2.6,355,985.19,3.4,83,4.19,0.0,1012.73,270.0
2018-05-02 02:40,50.6304133333333,-96.9806966666667,2.2,2.7,5,985.26,3.4,83,4.19,0.0,1012.78,270.0
2018-05-02 02:50,50.6304466666667,-96.9807533333333,3.0,3.4,1,985.29,3.3,84,4.19,0.0,1012.80,270.0
2018-05-02 03:00,50.6304433333333,-96.98077,2.9,3.4,354,985.31,3.3,84,4.19,0.0,1012.80,270.0
2018-05-02 03:10,50.6304433333333,-96.98077,2.8,3.5,1,985.28,3.3,83,4.20,0.0,1012.76,270.0
2018-05-02 03:20,50.6304383333333,-96.980765,2.9,3.2,357,985.30,3.3,83,4.20,0.0,1012.77,270.0
2018-05-02 03:30,50.6304366666667,-96.9807666666667,2.5,2.8,360,985.28,3.3,83,4.20,0.0,1012.74,270.0
2018-05-02 03:40,50.6304266666667,-96.9807683333333,2.3,2.7,13,985.20,3.3,83,4.21,0.0,1012.65,270.0
2018-05-02 03:50,50.63043,-96.9807716666667,2.0,2.5,22,985.19,3.2,85,4.22,0.0,1012.64,270.0
2018-05-02 04:00,50.630425,-96.9807716666667,2.7,3.4,7,985.18,3.0,86,4.23,0.0,1012.65,270.0
2018-05-02 04:10,50.63042,-96.9807666666667,2.9,3.3,357,985.20,2.8,90,4.23,0.0,1012.68,270.0
2018-05-02 04:20,50.630425,-96.9807633333333,2.7,3.2,356,985.20,3.0,86,4.23,0.0,1012.66,270.0
2018-05-02 04:30,50.6304233333333,-96.9807633333333,2.6,3.0,3,985.20,3.1,85,4.23,0.0,1012.66,270.0
2018-05-02 04:40,50.6304266666667,-96.980765,3.2,3.5,8,985.06,2.9,87,4.22,0.0,1012.53,270.0
2018-05-02 04:50,50.6304266666667,-96.980765,3.4,3.8,359,984.93,2.8,88,4.22,0.0,1012.40,270.0
2018-05-02 05:00,50.6304283333333,-96.980765,3.4,3.8,359,984.98,2.8,86,4.21,0.0,1012.45,90.0
2018-05-02 05:10,50.63043,-96.980765,3.1,3.9,350,984.99,2.8,86,4.21,0.0,1012.46,90.0
2018-05-02 05:20,50.63043,-96.980765,2.0,2.5,349,984.93,2.8,86,4.21,0.0,1012.40,90.0
2018-05-02 05:30,50.630435,-96.980755,1.9,2.7,354,984.95,2.8,86,4.21,0.0,1012.41,90.0
2018-05-02 05:40,50.6304333333333,-96.9807516666667,1.7,2.1,360,985.05,2.8,85,4.21,0.0,1012.53,90.0
2018-05-02 05:50,50.630435,-96.980755,1.5,2.1,10,985.08,2.8,86,4.21,0.0,1012.57,90.0
2018-05-02 06:00,50.6304366666667,-96.9807583333333,1.4,2.0,24,985.12,2.8,86,4.22,0.0,1012.62,131.7
2018-05-02 06:10,50.63044,-96.98076,1.7,2.0,29,985.17,2.7,87,4.22,0.0,1012.67,131.7
2018-05-02 06:20,50.63044,-96.9807583333333,1.3,1.7,45,985.24,2.6,86,4.23,0.0,1012.74,131.7
2018-05-02 06:30,50.6304383333333,-96.9807566666667,1.4,1.9,82,985.41,2.7,87,4.23,0.0,1012.92,131.7
2018-05-02 06:40,50.6304283333333,-96.98078,0.9,1.9,89,985.48,2.6,89,4.24,0.0,1012.99,131.7
2018-05-02 06:50,50.6304433333333,-96.98076,0.6,1.4,88,985.42,2.5,92,4.24,0.0,1012.94,131.7
2018-05-02 07:00,50.6304433333333,-96.980755,1.0,1.6,91,985.37,2.5,91,4.24,0.0,1012.89,43.4
2018-05-02 07:10,50.63044,-96.9807566666667,0.1,0.6,83,985.31,2.4,91,4.24,0.0,1012.84,43.4
2018-05-02 07:20,50.630435,-96.9807533333333,0.0,0.0,0,985.24,2.4,90,4.24,0.0,1012.76,43.4
2018-05-02 07:30,50.63044,-96.980785,0.5,1.6,199,985.21,2.0,90,4.23,0.0,1012.75,43.4
2018-05-02 07:40,50.6304383333333,-96.980765,1.3,1.6,210,985.18,1.9,89,4.23,0.0,1012.73,43.4
2018-05-02 07:50,50.6304366666667,-96.9807633333333,0.5,1.2,215,985.03,2.0,89,4.24,0.0,1012.57,43.4
2018-05-02 08:00,50.6304366666667,-96.9807633333333,0.2,1.1,221,984.97,2.1,89,4.22,0.0,1012.51,360.0
2018-05-02 08:10,50.6304366666667,-96.9807633333333,0.9,1.3,206,984.93,2.1,89,4.19,0.0,1012.46,360.0
2018-05-02 08:20,50.630455,-96.9807666666667,0.9,1.4,203,984.77,2.1,89,4.17,0.0,1012.30,360.0
2018-05-02 08:30,50.6304416666667,-96.9807566666667,0.0,0.0,0,984.54,2.2,88,4.16,0.0,1012.07,360.0
2018-05-02 08:40,50.6304433333333,-96.9807616666667,0.0,0.0,0,984.49,2.1,89,4.17,0.0,1012.02,360.0
2018-05-02 08:50,50.6304416666667,-96.9807616666667,0.0,0.0,0,984.50,2.1,90,4.17,0.0,1012.03,360.0
2018-05-02 09:00,50.6304416666667,-96.9807616666667,0.6,2.1,251,984.54,2.1,90,4.18,0.0,1012.08,38.0
2018-05-02 09:10,50.63044,-96.9807616666667,1.4,2.0,244,984.52,2.1,91,4.19,0.0,1012.06,38.0
2018-05-02 09:20,50.63044,-96.98076,1.8,2.8,252,984.44,2.4,89,4.19,0.0,1011.98,38.0
2018-05-02 09:30,50.63042,-96.9807716666667,2.5,3.4,249,984.44,2.5,89,4.20,0.0,1011.98,38.0
2018-05-02 09:40,50.6304316666667,-96.98076,2.3,3.6,262,984.42,2.6,88,4.20,0.0,1011.95,38.0
2018-05-02 09:50,50.6304366666667,-96.980755,2.5,3.5,257,984.47,2.6,87,4.20,0.0,1012.00,38.0
2018-05-02 10:00,50.6304233333333,-96.9807533333333,1.7,2.5,241,984.48,2.6,87,4.21,0.0,1012.01,140.5
2018-05-02 10:10,50.6304316666667,-96.9807616666667,2.0,2.7,235,984.52,2.5,88,4.21,0.0,1012.05,140.5
2018-05-02 10:20,50.630435,-96.9807633333333,2.5,3.5,208,984.63,2.2,91,4.21,0.0,1012.17,140.5
2018-05-02 10:30,50.6304516666667,-96.9807633333333,2.8,3.5,215,984.53,2.2,90,4.18,0.0,1012.08,140.5
2018-05-02 10:40,50.6304133333333,-96.9807666666667,2.7,3.2,197,984.52,2.2,90,4.17,0.0,1012.07,140.5
2018-05-02 10:50,50.6304333333333,-96.9807583333333,2.3,2.9,198,984.48,2.1,91,4.18,0.0,1012.04,140.5
2018-05-02 11:00,50.6304483333333,-96.98077,2.0,2.4,196,984.41,2.0,92,4.19,0.0,1011.96,360.0
2018-05-02 11:10,50.6304183333333,-96.9807466666667,1.7,1.9,193,984.40,2.0,93,4.20,0.0,1011.94,360.0
2018-05-02 11:20,50.6304316666667,-96.9807533333333,1.7,2.2,182,984.39,1.9,94,4.19,0.0,1011.93,360.0
2018-05-02 11:30,50.630435,-96.9807533333333,1.5,1.7,196,984.35,1.8,95,4.19,0.0,1011.89,360.0
2018-05-02 11:40,50.63044,-96.980755,1.3,1.6,198,984.29,1.6,98,4.18,0.0,1011.84,360.0
2018-05-02 11:50,50.63044,-96.9807566666667,0.6,1.4,196,984.28,1.6,97,4.18,0.0,1011.83,360.0
2018-05-02 12:00,50.6304383333333,-96.9807566666667,0.3,0.8,168,984.30,1.7,97,4.18,0.0,1011.85,90.0
2018-05-02 12:10,50.63044,-96.9807583333333,0.5,1.1,164,984.31,1.9,97,4.17,0.0,1011.87,90.0
2018-05-02 12:20,50.6304383333333,-96.9807566666667,2.5,3.8,148,984.39,1.5,99,4.16,0.0,1011.97,90.0
2018-05-02 12:30,50.6304383333333,-96.9807566666667,4.0,4.5,151,984.37,1.4,99,4.16,0.0,1011.95,90.0
2018-05-02 12:40,50.6304383333333,-96.9807583333333,5.9,6.8,152,984.50,1.0,99,4.16,0.0,1012.11,90.0
2018-05-02 12:50,50.6304366666667,-96.9807583333333,5.9,6.6,156,984.56,0.8,99,4.16,0.0,1012.19,90.0
2018-05-02 13:00,50.6304366666667,-96.9807583333333,5.9,6.7,152,984.53,0.9,99,4.13,0.0,1012.15,318.7
2018-05-02 13:10,50.6304366666667,-96.9807583333333,6.3,7.3,142,984.54,0.7,99,4.12,0.0,1012.17,318.7
2018-05-02 13:20,50.6304366666667,-96.9807583333333,6.3,7.4,148,984.54,0.6,100,4.12,0.0,1012.19,318.7
2018-05-02 13:30,50.630435,-96.9807583333333,6.4,7.1,157,984.62,0.9,99,4.12,0.0,1012.27,318.7
2018-05-02 13:40,50.6304366666667,-96.98076,7.1,8.3,145,984.57,1.0,99,4.13,0.0,1012.21,318.7
2018-05-02 13:50,50.6304416666667,-96.9807666666667,7.7,8.9,141,984.54,1.2,100,4.13,0.0,1012.17,318.7
2018-05-02 14:00,50.630435,-96.9807633333333,7.8,8.9,146,984.50,1.7,99,4.14,0.0,1012.09,360.0
2018-05-02 14:10,50.6304383333333,-96.9807616666667,7.0,8.6,138,984.42,2.7,98,4.14,0.0,1011.97,360.0
2018-05-02 14:20,50.6304383333333,-96.98076,7.1,8.4,125,984.26,2.8,99,4.15,0.0,1011.81,360.0
2018-05-02 14:30,50.63045,-96.9808133333333,7.2,8.6,125,984.18,2.4,99,4.16,0.0,1011.76,360.0
2018-05-02 14:40,50.63044,-96.98077,7.4,8.9,130,984.17,2.5,99,4.17,0.0,1011.77,360.0
2018-05-02 14:50,50.630445,-96.9807766666667,7.0,9.0,139,984.08,2.3,99,4.18,0.0,1011.67,360.0
2018-05-02 15:00,50.6304483333333,-96.9807783333333,6.6,8.0,130,984.01,2.8,99,4.16,0.0,1011.58,286.8
2018-05-02 15:10,50.6304383333333,-96.980765,6.5,8.3,127,983.98,2.7,99,4.12,0.0,1011.57,286.8
2018-05-02 15:20,50.630435,-96.9807666666667,7.1,9.2,126,983.89,2.7,99,4.11,0.0,1011.46,286.8
2018-05-02 15:30,50.6304366666667,-96.9807666666667,9.0,11.3,125,983.86,2.8,99,4.12,0.0,1011.42,286.8
2018-05-02 15:40,50.6304333333333,-96.9807633333333,8.3,9.8,117,983.77,2.9,99,4.12,0.0,1011.30,286.8
2018-05-02 15:50,50.6304233333333,-96.9807316666667,9.4,11.5,115,983.64,3.0,99,4.12,0.0,1011.14,286.8
2018-05-02 16:00,50.63043,-96.9807583333333,10.7,13.3,117,983.54,3.0,99,4.11,0.0,1011.00,360.0
2018-05-02 16:10,50.630435,-96.9807616666667,10.1,12.0,113,983.53,2.9,99,4.11,0.0,1010.99,360.0
2018-05-02 16:20,50.63043,-96.9807633333333,10.3,11.9,114,983.40,2.9,99,4.11,0.0,1010.87,360.0
2018-05-02 16:30,50.63043,-96.9807633333333,9.3,10.7,111,983.33,2.9,99,4.11,0.0,1010.79,360.0
2018-05-02 16:40,50.63043,-96.9807633333333,9.4,11.6,111,983.17,3.2,98,4.10,0.0,1010.62,360.0
2018-05-02 16:50,50.6304466666667,-96.9807666666667,10.4,11.5,114,983.00,3.1,99,4.09,0.0,1010.43,360.0
2018-05-02 17:00,50.6304416666667,-96.9807583333333,10.7,13.4,113,982.95,3.1,99,4.06,0.0,1010.38,48.3
2018-05-02 17:10,50.6304383333333,-96.98076,9.6,11.3,108,982.86,3.4,97,4.04,0.0,1010.28,48.3
2018-05-02 17:20,50.6304383333333,-96.9807633333333,10.9,12.7,113,982.82,3.2,99,4.01,0.0,1010.24,48.3
2018-05-02 17:30,50.6304383333333,-96.980765,9.3,10.9,107,982.78,3.4,97,4.00,0.0,1010.18,48.3
2018-05-02 17:40,50.6304366666667,-96.9807683333333,9.3,11.0,104,982.61,3.6,95,4.00,0.0,1009.99,48.3
2018-05-02 17:50,50.630425,-96.9807616666667,10.8,12.4,107,982.41,3.6,95,4.00,0.0,1009.79,48.3
2018-05-02 18:00,50.6304316666667,-96.98076,10.3,12.7,106,982.36,3.5,96,4.01,0.0,1009.74,131.6
2018-05-02 18:10,50.6304233333333,-96.980785,8.2,11.6,96,982.30,4.1,91,4.03,0.0,1009.66,131.6
2018-05-02 18:20,50.6304266666667,-96.9807633333333,5.1,7.4,89,982.24,4.1,91,4.06,0.0,1009.58,131.6
2018-05-02 18:30,50.6304283333333,-96.9807583333333,5.9,11.7,96,982.15,4.5,88,4.07,0.0,1009.46,131.6
2018-05-02 18:40,50.6304283333333,-96.9807583333333,10.6,13.4,105,982.05,4.8,87,4.09,0.0,1009.35,131.6
2018-05-02 18:50,50.6304283333333,-96.9807566666667,12.2,15.5,107,981.96,4.9,86,4.11,0.0,1009.25,131.6
2018-05-02 19:00,50.6304233333333,-96.9807633333333,11.2,14.8,102,981.92,5.3,83,4.13,0.0,1009.18,270.0
2018-05-02 19:10,50.6304283333333,-96.9807633333333,10.1,13.7,102,981.93,5.6,81,4.16,0.0,1009.18,270.0
2018-05-02 19:20,50.63043,-96.9807633333333,9.3,13.7,102,981.89,5.4,83,4.17,0.0,1009.14,270.0
2018-05-02 19:30,50.63043,-96.9807666666667,6.1,9.4,109,981.89,4.9,84,4.19,0.0,1009.15,270.0
2018-05-02 19:40,50.63043,-96.9807666666667,6.9,16.3,123,981.77,5.7,78,4.21,0.0,1009.00,270.0
2018-05-02 19:50,50.6304033333333,-96.98075,3.6,13.0,112,981.91,8.4,58,4.24,0.0,1009.00,270.0
2018-05-02 20:00,50.630425,-96.98076,2.1,6.9,125,981.96,8.2,64,4.28,0.0,1009.05,142.0
2018-05-02 20:10,50.6304266666667,-96.9807566666667,4.9,9.5,100,981.81,6.8,70,4.31,0.0,1008.95,142.0
2018-05-02 20:20,50.630425,-96.980755,4.5,6.9,102,981.72,7.2,64,4.32,0.0,1008.83,142.0
2018-05-02 20:30,50.630425,-96.98075,5.9,10.9,108,981.66,8.2,60,4.34,0.0,1008.70,142.0
2018-05-02 20:40,50.630435,-96.9807533333333,3.9,11.6,120,981.56,7.7,61,4.35,0.0,1008.61,142.0
2018-05-02 20:50,50.6304316666667,-96.9807533333333,4.9,7.1,124,981.48,8.1,58,4.38,0.0,1008.49,142.0
2018-05-02 21:00,50.63043,-96.9807533333333,3.8,11.2,149,981.48,8.8,53,4.39,0.0,1008.44,167.4
2018-05-02 21:10,50.6304333333333,-96.9807566666667,5.2,8.9,121,981.48,8.6,55,4.42,0.0,1008.46,167.4
2018-05-02 21:20,50.6304333333333,-96.9807566666667,1.4,9.0,149,981.45,8.7,50,4.44,0.0,1008.45,167.4
2018-05-02 21:30,50.630435,-96.9807566666667,9.0,13.9,250,981.43,13.2,25,4.47,0.0,1008.18,167.4
2018-05-02 21:40,50.630435,-96.9807566666667,9.7,15.5,244,981.40,15.2,19,4.48,0.0,1007.91,167.4
2018-05-02 21:50,50.630435,-96.980755,8.6,14.3,240,981.40,15.4,18,4.47,0.0,1007.92,167.4
2018-05-02 22:00,50.630435,-96.980755,8.4,13.4,233,981.36,15.2,18,4.47,0.0,1007.96,41.3
2018-05-02 22:10,50.6304066666667,-96.9807583333333,7.8,12.0,273,981.19,15.5,16,4.52,0.0,1007.75,41.3
2018-05-02 22:20,50.6304183333333,-96.980765,7.4,12.9,263,981.15,16.0,16,4.61,0.0,1007.64,41.3
2018-05-02 22:30,50.6304166666667,-96.9807683333333,8.4,17.1,279,981.04,16.0,16,4.68,0.0,1007.55,41.3
2018-05-02 22:40,50.6304183333333,-96.9807633333333,8.6,12.2,290,981.05,15.6,15,4.74,0.0,1007.55,41.3
2018-05-02 22:50,50.6304216666667,-96.9807616666667,8.3,12.8,286,981.17,15.4,18,4.76,0.0,1007.66,41.3
2018-05-02 23:00,50.6304216666667,-96.9807583333333,8.4,12.7,292,981.15,15.2,19,4.79,0.0,1007.65,360.0
2018-05-02 23:10,50.6304233333333,-96.9807583333333,7.6,10.7,282,981.23,15.1,20,4.86,0.0,1007.74,360.0
2018-05-02 23:20,50.6304433333333,-96.9807533333333,6.5,11.3,298,981.23,15.0,21,4.89,0.0,1007.53,360.0
2018-05-02 23:30,50.630425,-96.98076,4.6,8.9,316,981.19,14.9,22,4.88,0.0,1007.40,360.0
2018-05-02 23:40,50.63043,-96.980755,3.4,6.8,295,981.22,14.9,22,4.86,0.0,1007.42,360.0
